FW4657 Weather Reports


Display with metric or nautical units.
time (UTC)temp
F
wind
direction
speed
MPH
gust
MPH
rain 1hr
in
rain 24hr
in
rain mn
in
humidity
%
barometer
mb
20260505140645 70 98 2.0 4.0 0.00 0.00 0.00 52 1010.0
20260505140142 70 111 2.0 3.0 0.00 0.00 0.00 52 1010.0
20260505130106 66 69 2.0 3.0 0.00 0.00 0.00 58 1010.8
20260505124555 63 64 1.0 1.0 0.00 0.00 0.00 62 1011.1
20260505124052 62 38 0.0 2.0 0.00 0.00 0.00 62 1011.1
20260505123548 62 126 0.0 1.0 0.00 0.00 0.00 64 1011.1
20260505123045 60 81 2.0 2.0 0.00 0.00 0.00 65 1010.8
20260505122542 59 108 2.0 3.0 0.00 0.00 0.00 66 1010.4
20260505122039 59 114 2.0 3.0 0.00 0.00 0.00 66 1010.8
20260505121535 59 98 2.0 2.0 0.00 0.00 0.00 68 1010.8
20260505121032 58 85 2.0 3.0 0.00 0.00 0.00 68 1010.8
20260505120528 57 98 2.0 2.0 0.00 0.00 0.00 70 1010.8
20260505120024 57 76 2.0 2.0 0.00 0.00 0.00 71 1010.8
20260505115518 57 107 2.0 3.0 0.00 0.00 0.00 70 1010.8
20260505115017 58 82 0.0 2.0 0.00 0.00 0.00 69 1010.8
20260505114513 57 54 1.0 2.0 0.00 0.00 0.00 71 1010.8
20260505114009 57 1 0.0 0.0 0.00 0.00 0.00 73 1011.1
20260505113506 57 359 0.0 0.0 0.00 0.00 0.00 72 1011.1
20260505113003 57 74 0.0 1.0 0.00 0.00 0.00 71 1011.1
20260505112459 56 50 0.0 1.0 0.00 0.00 0.00 74 1011.1
20260505111956 56 102 1.0 3.0 0.00 0.00 0.00 72 1011.1
20260505111450 56 96 1.0 2.0 0.00 0.00 0.00 72 1011.1
20260505110947 57 67 0.0 0.0 0.00 0.00 0.00 70 1011.1
20260505110444 56 51 0.0 0.0 0.00 0.00 0.00 70 1011.4
20260505101914 49 226 0.0 0.0 0.00 0.00 0.00 83 1011.1
20260505101409 50 168 0.0 0.0 0.00 0.00 0.00 81 1011.1
20260505100905 50 173 0.0 0.0 0.00 0.00 0.00 80 1011.4
20260505100402 50 171 0.0 0.0 0.00 0.00 0.00 79 1011.1
20260505095857 51 171 0.0 0.0 0.00 0.00 0.00 79 1011.1
20260505095355 51 198 0.0 0.0 0.00 0.00 0.00 77 1011.1
20260505094851 52 135 0.0 1.0 0.00 0.00 0.00 74 1011.1
20260505094348 52 128 1.0 1.0 0.00 0.00 0.00 74 1011.1
20260505093844 52 188 0.0 0.0 0.00 0.00 0.00 75 1011.1
20260505093341 51 147 1.0 1.0 0.00 0.00 0.00 77 1011.1
20260505092838 50 213 0.0 0.0 0.00 0.00 0.00 82 1011.1
20260505092337 48 221 0.0 0.0 0.00 0.00 0.00 83 1011.1
20260505091833 50 319 0.0 0.0 0.00 0.00 0.00 82 1011.1
20260505091332 50 298 0.0 0.0 0.00 0.00 0.00 81 1011.1
20260505090829 51 272 0.0 0.0 0.00 0.00 0.00 80 1011.1
20260505090327 51 305 0.0 0.0 0.00 0.00 0.00 78 1011.1
20260505085824 51 258 0.0 0.0 0.00 0.00 0.00 77 1011.1
20260505085322 52 265 1.0 1.0 0.00 0.00 0.00 76 1011.1
20260505084819 52 245 0.0 2.0 0.00 0.00 0.00 74 1010.8
20260505084318 52 321 0.0 0.0 0.00 0.00 0.00 75 1011.4
20260505083814 51 336 0.0 0.0 0.00 0.00 0.00 77 1011.1
20260505083312 52 216 0.0 0.0 0.00 0.00 0.00 76 1011.1
20260505082808 52 235 0.0 1.0 0.00 0.00 0.00 76 1011.4
20260505082305 51 157 0.0 0.0 0.00 0.00 0.00 78 1011.4
20260505081801 51 168 0.0 0.0 0.00 0.00 0.00 78 1011.4
20260505081258 51 33 0.0 0.0 0.00 0.00 0.00 80 1011.4
20260505080755 50 182 0.0 0.0 0.00 0.00 0.00 80 1011.4
20260505080251 50 234 0.0 0.0 0.00 0.00 0.00 81 1011.4
20260505075746 50 170 0.0 0.0 0.00 0.00 0.00 80 1011.4
20260505075244 50 292 0.0 0.0 0.00 0.00 0.00 80 1011.4
20260505074741 51 308 0.0 0.0 0.00 0.00 0.00 78 1011.4
20260505074238 51 220 0.0 0.0 0.00 0.00 0.00 79 1011.1
20260505073736 51 182 0.0 0.0 0.00 0.00 0.00 79 1011.1
20260505073233 51 310 0.0 0.0 0.00 0.00 0.00 78 1011.4
20260505072730 51 327 0.0 0.0 0.00 0.00 0.00 78 1011.4
20260505072226 51 223 0.0 0.0 0.00 0.00 0.00 78 1011.4
20260505071721 51 334 1.0 1.0 0.00 0.00 0.00 77 1011.4
20260505071219 51 246 1.0 2.0 0.00 0.00 0.00 77 1011.4
20260505070716 51 335 0.0 0.0 0.00 0.00 0.00 76 1011.1
20260505070212 52 283 1.0 2.0 0.00 0.00 0.00 74 1011.1
20260505065708 51 308 0.0 0.0 0.00 0.00 0.00 76 1011.1
20260505065205 52 283 0.0 0.0 0.00 0.00 0.00 74 1011.4
20260505064702 52 287 0.0 0.0 0.00 0.00 0.00 74 1011.4
20260505064200 52 324 0.0 1.0 0.00 0.00 0.00 73 1011.4
20260505063657 52 334 0.0 1.0 0.00 0.00 0.00 72 1011.4
20260505063153 53 215 0.0 1.0 0.00 0.00 0.00 72 1011.1
20260505062649 53 83 0.0 2.0 0.00 0.00 0.00 70 1011.4
20260505062147 53 285 0.0 2.0 0.00 0.00 0.00 71 1011.4
20260505061644 53 196 0.0 0.0 0.00 0.00 0.00 70 1011.4
20260505061143 53 270 0.0 1.0 0.00 0.00 0.00 70 1011.4
20260505060640 53 310 1.0 2.0 0.00 0.00 0.00 69 1011.4
20260505060136 53 29 0.0 2.0 0.00 0.00 0.00 70 1011.4
20260505055631 53 196 0.0 1.0 0.00 0.00 0.00 69 1011.4
20260505055129 53 108 0.0 2.0 0.00 0.00 0.00 69 1011.4
20260505054626 53 323 0.0 0.0 0.00 0.00 0.00 71 1011.4
20260505054124 53 86 0.0 0.0 0.00 0.00 0.00 69 1011.4
20260505053621 53 331 0.0 0.0 0.00 0.00 0.00 69 1011.4
20260505053117 53 202 0.0 0.0 0.00 0.00 0.00 68 1011.1
20260505052614 53 54 0.0 0.0 0.00 0.00 0.00 68 1011.4
20260505052112 52 153 0.0 0.0 0.00 0.00 0.00 70 1011.4
20260505051608 53 92 0.0 0.0 0.00 0.00 0.00 69 1011.4
20260505051107 52 175 0.0 0.0 0.00 0.00 0.00 70 1011.1
20260505050604 52 300 0.0 0.0 0.00 0.00 0.00 70 1011.4
20260505041532 47 317 0.0 0.0 0.00 0.00 0.00 82 1011.1
20260505041030 47 311 0.0 0.0 0.00 0.00 0.00 82 1010.8
20260505040527 47 316 0.0 0.0 0.00 0.00 0.00 82 1010.8
20260505040024 48 314 0.0 0.0 0.00 0.00 0.00 83 1011.1
20260505035520 47 306 0.0 0.0 0.00 0.00 0.00 83 1010.8
20260505035017 47 321 0.0 0.0 0.00 0.00 0.00 84 1010.8
20260505034513 46 344 0.0 2.0 0.00 0.00 0.00 85 1010.8
20260505034010 46 122 0.0 0.0 0.00 0.00 0.00 85 1010.4
20260505033507 47 328 0.0 0.0 0.00 0.00 0.00 84 1010.8
20260505033005 47 259 0.0 0.0 0.00 0.00 0.00 83 1010.4
20260505032502 47 302 0.0 0.0 0.00 0.00 0.00 83 1010.4
20260505031959 48 311 0.0 0.0 0.00 0.00 0.00 83 1010.4
20260505031455 48 352 0.0 0.0 0.00 0.00 0.00 81 1010.4
20260505030952 48 284 0.0 0.0 0.00 0.00 0.00 81 1010.4
20260505030449 48 281 0.0 0.0 0.00 0.00 0.00 83 1010.4
20260505025944 48 308 0.0 0.0 0.00 0.00 0.00 82 1010.4
20260505025441 48 353 0.0 0.0 0.00 0.00 0.00 81 1010.4
20260505024940 48 313 0.0 0.0 0.00 0.00 0.00 80 1010.4
20260505024437 48 299 0.0 0.0 0.00 0.00 0.00 80 1010.4
20260505023934 50 301 0.0 0.0 0.00 0.00 0.00 76 1010.8
20260505023431 49 301 0.0 0.0 0.00 0.00 0.00 77 1010.8
20260505022928 51 344 0.0 0.0 0.00 0.00 0.00 75 1010.8
20260505022426 50 302 0.0 0.0 0.00 0.00 0.00 75 1010.8
20260505021923 50 292 0.0 0.0 0.00 0.00 0.00 76 1010.8
20260505021419 50 291 0.0 0.0 0.00 0.00 0.00 77 1010.4
20260505020915 50 283 0.0 0.0 0.00 0.00 0.00 77 1010.8
20260505020410 51 296 0.0 0.0 0.00 0.00 0.00 76 1010.4
20260505015908 51 286 0.0 0.0 0.00 0.00 0.00 77 1010.4
20260505015405 51 335 0.0 0.0 0.00 0.00 0.00 78 1010.4
20260505014902 51 286 0.0 0.0 0.00 0.00 0.00 77 1010.8
20260505014359 51 312 0.0 0.0 0.00 0.00 0.00 77 1010.4
20260505013856 51 286 0.0 0.0 0.00 0.00 0.00 77 1010.4
20260505013353 51 284 0.0 0.0 0.00 0.00 0.00 77 1010.4
20260505012851 51 288 0.0 0.0 0.00 0.00 0.00 77 1010.0
20260505012349 51 295 0.0 0.0 0.00 0.00 0.00 77 1010.0
20260505011844 52 285 0.0 0.0 0.00 0.00 0.00 76 1010.0
20260505011341 52 297 0.0 0.0 0.00 0.00 0.00 75 1010.0
20260505010837 52 317 0.0 0.0 0.00 0.00 0.00 74 1010.0
20260505010333 52 302 0.0 0.0 0.00 0.00 0.00 74 1010.0
20260505005830 52 301 0.0 0.0 0.00 0.00 0.00 71 1010.0
20260505005327 53 290 0.0 0.0 0.00 0.00 0.00 72 1009.6
20260505004825 53 336 0.0 0.0 0.00 0.00 0.00 71 1009.6
20260505004320 53 333 0.0 0.0 0.00 0.00 0.00 71 1009.6
20260505003818 55 313 0.0 0.0 0.00 0.00 0.00 70 1009.6
20260505003315 53 318 0.0 0.0 0.00 0.00 0.00 69 1009.6
20260505002811 53 332 0.0 0.0 0.00 0.00 0.00 70 1009.3
20260505002308 54 284 0.0 0.0 0.00 0.00 0.00 70 1009.3
20260505001807 54 296 0.0 0.0 0.00 0.00 0.00 68 1009.3
20260505001303 54 306 0.0 0.0 0.00 0.00 0.00 67 1009.0
20260505000800 56 282 0.0 0.0 0.00 0.00 0.00 65 1009.0
20260505000258 56 306 0.0 0.0 0.00 0.00 0.00 65 1009.0
20260504235754 56 327 0.0 0.0 0.00 0.00 0.00 64 1009.0
20260504235251 57 298 0.0 0.0 0.00 0.00 0.00 63 1009.0
20260504234748 57 285 0.0 0.0 0.00 0.00 0.00 65 1008.3
20260504234246 57 286 0.0 0.0 0.00 0.00 0.00 64 1008.6
20260504233742 57 254 0.0 0.0 0.00 0.00 0.00 61 1008.6
20260504233237 58 208 0.0 0.0 0.00 0.00 0.00 61 1008.3
20260504232735 58 335 0.0 0.0 0.00 0.00 0.00 60 1008.3
20260504232232 58 297 0.0 0.0 0.00 0.00 0.00 60 1008.6
20260504231729 59 284 0.0 0.0 0.00 0.00 0.00 58 1008.3
20260504231225 59 194 1.0 1.0 0.00 0.00 0.00 57 1007.9
20260504230721 61 221 0.0 0.0 0.00 0.00 0.00 52 1007.9
20260504230220 62 236 0.0 0.0 0.00 0.00 0.00 51 1008.3
20260504225718 63 284 0.0 1.0 0.00 0.00 0.00 52 1008.3
20260504225214 63 40 1.0 1.0 0.00 0.00 0.00 49 1007.9
20260504224711 62 336 1.0 1.0 0.00 0.00 0.00 54 1007.9
20260504224209 62 215 0.0 2.0 0.00 0.00 0.00 52 1007.9
20260504223705 62 236 0.0 1.0 0.00 0.00 0.00 51 1007.9
20260504223200 63 169 0.0 1.0 0.00 0.00 0.00 53 1007.9
20260504222658 63 285 3.0 4.0 0.00 0.00 0.00 50 1007.9
20260504222154 62 302 0.0 0.0 0.00 0.00 0.00 56 1007.9
20260504221652 62 24 1.0 1.0 0.00 0.00 0.00 52 1007.9
20260504221149 62 221 0.0 0.0 0.00 0.00 0.00 53 1007.9
20260504220645 62 222 0.0 2.0 0.00 0.00 0.00 57 1007.9
20260504220143 62 196 1.0 2.0 0.00 0.00 0.00 56 1007.9
20260504215639 64 52 0.0 1.0 0.00 0.00 0.00 48 1007.9
20260504215136 64 302 0.0 1.0 0.00 0.00 0.00 48 1008.3
20260504214632 64 199 0.0 0.0 0.00 0.00 0.00 50 1007.9
20260504214130 66 343 1.0 3.0 0.00 0.00 0.00 45 1007.9
20260504213625 66 177 0.0 0.0 0.00 0.00 0.00 47 1008.3
20260504213122 67 299 0.0 4.0 0.00 0.00 0.00 45 1008.3
20260504212618 67 222 1.0 2.0 0.00 0.00 0.00 46 1008.3
20260504212115 67 199 0.0 2.0 0.00 0.00 0.00 44 1007.9
20260504211613 67 74 0.0 4.0 0.00 0.00 0.00 45 1008.3
20260504211109 66 37 0.0 2.0 0.00 0.00 0.00 47 1008.3
20260504210607 66 237 1.0 3.0 0.00 0.00 0.00 46 1008.3
20260504205601 65 317 2.0 3.0 0.00 0.00 0.00 47 1007.9
20260504205058 66 85 0.0 2.0 0.00 0.00 0.00 48 1007.9
20260504204556 66 302 1.0 6.0 0.00 0.00 0.00 48 1008.3
20260504204055 66 31 0.0 3.0 0.00 0.00 0.00 48 1008.3
20260504203553 66 330 0.0 3.0 0.00 0.00 0.00 48 1007.9
20260504203050 65 49 0.0 3.0 0.00 0.00 0.00 48 1008.3
20260504202545 67 312 1.0 2.0 0.00 0.00 0.00 47 1008.3
20260504202042 66 1 0.0 2.0 0.00 0.00 0.00 48 1008.3
20260504201539 64 20 0.0 2.0 0.00 0.00 0.00 51 1007.9
20260504201037 64 226 0.0 1.0 0.00 0.00 0.00 50 1008.3
20260504200533 64 184 0.0 0.0 0.00 0.00 0.00 50 1008.3
20260504200031 64 317 1.0 4.0 0.00 0.00 0.00 50 1008.3
20260504195526 64 8 1.0 2.0 0.00 0.00 0.00 51 1008.3
20260504195023 66 40 0.0 2.0 0.00 0.00 0.00 50 1008.3
20260504194520 63 84 0.0 4.0 0.00 0.00 0.00 52 1008.6
20260504194015 64 320 0.0 1.0 0.00 0.00 0.00 51 1008.6
20260504193512 64 339 0.0 2.0 0.00 0.00 0.00 51 1008.6
20260504193011 63 1 3.0 3.0 0.00 0.00 0.00 53 1008.6
20260504192509 63 302 1.0 3.0 0.00 0.00 0.00 53 1009.0
20260504192007 62 234 0.0 3.0 0.00 0.00 0.00 54 1009.0
20260504191504 62 89 1.0 4.0 0.00 0.00 0.00 54 1009.0
20260504191000 60 27 2.0 4.0 0.00 0.00 0.00 55 1009.0
20260504190455 60 230 0.0 2.0 0.00 0.00 0.00 56 1009.0
20260504185952 62 80 0.0 0.0 0.00 0.00 0.00 55 1009.0
20260504185449 60 33 2.0 3.0 0.00 0.00 0.00 55 1009.0
20260504184946 60 12 1.0 4.0 0.00 0.00 0.00 56 1009.3
20260504184441 60 294 5.0 6.0 0.00 0.00 0.00 55 1009.0
20260504183937 60 37 2.0 3.0 0.00 0.00 0.00 56 1009.3
20260504183435 61 36 2.0 3.0 0.00 0.00 0.00 56 1009.3
20260504182933 59 229 1.0 3.0 0.00 0.00 0.00 58 1009.3
20260504182429 59 98 0.0 0.0 0.00 0.00 0.00 57 1009.3
20260504181926 59 183 0.0 4.0 0.00 0.00 0.00 58 1009.3
20260504181423 61 62 0.0 1.0 0.00 0.00 0.00 60 1009.3
20260504180922 59 65 0.0 1.0 0.00 0.00 0.00 59 1009.0
20260504180421 58 172 0.0 2.0 0.00 0.00 0.00 61 1009.3
20260504175918 58 332 0.0 4.0 0.00 0.00 0.00 61 1009.3
20260504175415 58 8 1.0 2.0 0.00 0.00 0.00 60 1009.6
20260504174913 58 122 1.0 2.0 0.00 0.00 0.00 60 1009.3
20260504174410 58 320 1.0 3.0 0.00 0.00 0.00 59 1009.3
20260504173908 59 46 0.0 1.0 0.00 0.00 0.00 60 1009.3
20260504173404 58 316 1.0 3.0 0.00 0.00 0.00 61 1009.3
20260504172901 58 221 0.0 0.0 0.00 0.00 0.00 61 1009.6
20260504172357 58 334 1.0 2.0 0.00 0.00 0.00 61 1009.6
20260504171853 57 47 0.0 2.0 0.00 0.00 0.00 62 1009.6
20260504171351 58 29 0.0 2.0 0.00 0.00 0.00 59 1009.6
20260504170848 58 336 0.0 1.0 0.00 0.00 0.00 60 1009.6
20260504170344 58 76 2.0 3.0 0.00 0.00 0.00 59 1009.6
20260504160303 61 75 2.0 3.0 0.00 0.00 0.00 52 1007.9
20260504150728 60 203 1.0 3.0 0.00 0.00 0.00 55 1008.3
20260504150225 59 147 0.0 4.0 0.00 0.00 0.00 56 1008.6